| time (UTC) | temp F | wind direction | speed knots | gust knots | rain 1hr in | rain 24hr in | rain mn in | humidity % | barometer mb |
| 20260504160135 | 46 | 45 | 0.0 | 0.9 | 0.00 | 0.47 | 0.00 | 93 | 1015.8 |
| 20260504141334 | 48 | 45 | 0.9 | 1.7 | 0.00 | 0.63 | 0.54 | 92 | 1015.2 |
| 20260504140435 | 48 | 76 | 0.0 | 2.6 | 0.00 | 0.65 | 0.54 | 92 | 1015.4 |
| 20260504130134 | 49 | 80 | 1.7 | 4.3 | 0.00 | 0.76 | 0.54 | 93 | 1015.0 |
| 20260504110434 | 50 | 45 | 0.9 | 1.7 | 0.02 | 0.87 | 0.54 | 93 | 1012.8 |
| 20260504100134 | 51 | 11 | 0.9 | 3.5 | 0.00 | 0.90 | 0.52 | 93 | 1011.0 |
| 20260504081334 | 53 | 29 | 2.6 | 5.2 | 0.11 | 0.92 | 0.48 | 92 | 1008.0 |
| 20260504080434 | 53 | 36 | 2.6 | 4.3 | 0.11 | 0.93 | 0.48 | 91 | 1007.7 |
| 20260504070134 | 55 | 12 | 2.6 | 6.1 | 0.09 | 0.93 | 0.38 | 84 | 1006.3 |
| 20260504045534 | 59 | 34 | 3.5 | 9.6 | 0.00 | 0.84 | 0.28 | 70 | 1003.3 |
| 20260504044634 | 60 | 340 | 3.5 | 7.0 | 0.00 | 0.84 | 0.28 | 70 | 1003.1 |
| 20260504043734 | 60 | 33 | 3.5 | 10.4 | 0.00 | 0.84 | 0.28 | 68 | 1003.1 |
| 20260504042835 | 61 | 42 | 3.5 | 10.4 | 0.00 | 0.84 | 0.28 | 68 | 1002.9 |
| 20260504041934 | 61 | 47 | 3.5 | 11.3 | 0.00 | 0.84 | 0.28 | 67 | 1002.9 |
| 20260504041035 | 62 | 60 | 6.1 | 14.8 | 0.00 | 0.84 | 0.28 | 67 | 1002.7 |
| 20260504040134 | 62 | 296 | 3.5 | 9.6 | 0.00 | 0.84 | 0.28 | 68 | 1002.7 |
| 20260504034334 | 62 | 13 | 4.3 | 13.0 | 0.00 | 0.84 | 0.28 | 70 | 1002.0 |
| 20260504033434 | 62 | 6 | 7.0 | 9.6 | 0.00 | 0.84 | 0.28 | 70 | 1002.0 |
| 20260504032534 | 63 | 48 | 6.1 | 11.3 | 0.00 | 0.84 | 0.28 | 72 | 1001.9 |
| 20260504031635 | 63 | 25 | 6.1 | 9.6 | 0.00 | 0.84 | 0.28 | 75 | 1001.9 |
| 20260504030734 | 62 | 60 | 4.3 | 7.8 | 0.01 | 0.84 | 0.28 | 77 | 1001.7 |
| 20260504025834 | 62 | 86 | 3.5 | 13.0 | 0.01 | 0.84 | 0.28 | 73 | 1001.7 |
| 20260504024934 | 62 | 354 | 6.1 | 12.2 | 0.01 | 0.84 | 0.28 | 76 | 1001.5 |
| 20260504024034 | 61 | 40 | 7.0 | 10.4 | 0.01 | 0.84 | 0.28 | 82 | 1001.4 |
| 20260504023134 | 60 | 21 | 3.5 | 7.0 | 0.01 | 0.84 | 0.28 | 83 | 1001.5 |
| 20260504022235 | 59 | 347 | 5.2 | 9.6 | 0.01 | 0.84 | 0.28 | 85 | 1001.4 |
| 20260504021334 | 59 | 32 | 1.7 | 6.1 | 0.01 | 0.84 | 0.28 | 86 | 1001.5 |
| 20260504020434 | 59 | 47 | 1.7 | 13.9 | 0.00 | 0.83 | 0.27 | 84 | 1001.5 |
| 20260504015534 | 59 | 32 | 6.1 | 13.9 | 0.00 | 0.83 | 0.27 | 83 | 1001.6 |
| 20260504014635 | 60 | 36 | 3.5 | 7.0 | 0.00 | 0.83 | 0.27 | 84 | 1001.4 |
| 20260504013734 | 60 | 31 | 4.3 | 7.0 | 0.00 | 0.83 | 0.27 | 84 | 1001.3 |
| 20260504012834 | 60 | 13 | 2.6 | 11.3 | 0.00 | 0.83 | 0.27 | 84 | 1001.2 |
| 20260504011934 | 61 | 6 | 3.5 | 7.0 | 0.00 | 0.83 | 0.27 | 84 | 1001.1 |
| 20260504010135 | 60 | 321 | 2.6 | 8.7 | 0.00 | 0.83 | 0.27 | 86 | 1001.0 |
| 20260504005234 | 60 | 17 | 3.5 | 7.0 | 0.00 | 0.83 | 0.27 | 85 | 1000.9 |
| 20260504004334 | 60 | 28 | 3.5 | 7.8 | 0.00 | 0.83 | 0.27 | 84 | 1000.9 |
| 20260504003434 | 60 | 13 | 2.6 | 9.6 | 0.00 | 0.83 | 0.27 | 85 | 1000.8 |
| 20260504002535 | 60 | 76 | 4.3 | 7.8 | 0.00 | 0.83 | 0.27 | 84 | 1001.2 |
| 20260504001634 | 60 | 104 | 3.5 | 13.0 | 0.00 | 0.83 | 0.27 | 83 | 1001.0 |
| 20260504000735 | 61 | 341 | 3.5 | 7.0 | 0.00 | 0.83 | 0.27 | 85 | 1000.7 |
| 20260503234935 | 61 | 51 | 1.7 | 5.2 | 0.00 | 0.83 | 0.27 | 88 | 1000.6 |
| 20260503234035 | 61 | 27 | 3.5 | 7.0 | 0.00 | 0.83 | 0.27 | 89 | 1000.1 |
| 20260503232234 | 60 | 9 | 3.5 | 5.2 | 0.00 | 0.83 | 0.27 | 92 | 1000.1 |
| 20260503231334 | 60 | 14 | 2.6 | 7.0 | 0.00 | 0.83 | 0.27 | 92 | 1000.1 |
| 20260503225534 | 60 | 327 | 2.6 | 7.0 | 0.00 | 0.83 | 0.27 | 95 | 1000.0 |
| 20260503224634 | 61 | 15 | 3.5 | 7.0 | 0.00 | 0.83 | 0.27 | 99 | 1000.2 |
| 20260503223734 | 61 | 33 | 1.7 | 4.3 | 0.00 | 0.83 | 0.27 | 99 | 1000.1 |
| 20260503222834 | 62 | 55 | 0.9 | 2.6 | 0.00 | 0.83 | 0.27 | 99 | 1000.1 |
| 20260503221934 | 61 | 71 | 1.7 | 2.6 | 0.00 | 0.83 | 0.27 | 99 | 1000.3 |
| 20260503220134 | 59 | 72 | 1.7 | 1.7 | 0.01 | 0.83 | 0.27 | 99 | 1000.3 |
| 20260503213434 | 58 | 231 | 0.0 | 1.7 | 0.01 | 0.83 | 0.27 | 97 | 1000.6 |
| 20260503212535 | 58 | 203 | 0.0 | 1.7 | 0.01 | 0.83 | 0.27 | 97 | 1000.6 |
| 20260503211635 | 58 | 76 | 0.0 | 1.7 | 0.01 | 0.83 | 0.27 | 97 | 1000.4 |
| 20260503205834 | 58 | 240 | 1.7 | 3.5 | 0.00 | 0.81 | 0.26 | 97 | 1000.0 |
| 20260503204935 | 58 | 45 | 0.0 | 1.7 | 0.00 | 0.81 | 0.26 | 97 | 999.8 |
| 20260503203134 | 58 | 66 | 1.7 | 5.2 | 0.00 | 0.81 | 0.26 | 96 | 1000.1 |
| 20260503202235 | 58 | 50 | 1.7 | 6.1 | 0.00 | 0.81 | 0.26 | 96 | 999.8 |
| 20260503201335 | 58 | 30 | 1.7 | 6.1 | 0.00 | 0.81 | 0.26 | 96 | 999.8 |
| 20260503200435 | 59 | 35 | 1.7 | 11.3 | 0.00 | 0.81 | 0.26 | 96 | 999.8 |
| 20260503194635 | 59 | 46 | 1.7 | 9.6 | 0.02 | 0.81 | 0.26 | 96 | 999.1 |
| 20260503192834 | 59 | 56 | 3.5 | 8.7 | 0.05 | 0.81 | 0.26 | 96 | 998.8 |
| 20260503191033 | 59 | 31 | 2.6 | 7.8 | 0.06 | 0.81 | 0.26 | 96 | 998.2 |
| 20260503190134 | 59 | 37 | 1.7 | 5.2 | 0.05 | 0.80 | 0.26 | 95 | 997.9 |
| 20260503185235 | 59 | 41 | 1.7 | 11.3 | 0.05 | 0.80 | 0.25 | 95 | 997.9 |
| 20260503184334 | 59 | 8 | 3.5 | 6.1 | 0.05 | 0.79 | 0.24 | 95 | 997.9 |
| 20260503183433 | 59 | 15 | 1.7 | 7.0 | 0.04 | 0.78 | 0.22 | 95 | 997.9 |
| 20260503182534 | 59 | 18 | 3.5 | 12.2 | 0.02 | 0.77 | 0.21 | 95 | 997.6 |
| 20260503181633 | 59 | 13 | 4.3 | 9.6 | 0.02 | 0.76 | 0.20 | 95 | 997.4 |
| 20260503175835 | 60 | 68 | 5.2 | 13.0 | 0.06 | 0.76 | 0.20 | 96 | 997.0 |
| 20260503174934 | 60 | 42 | 6.1 | 13.0 | 0.07 | 0.74 | 0.19 | 97 | 997.1 |
| 20260503174034 | 60 | 30 | 1.7 | 9.6 | 0.07 | 0.74 | 0.19 | 97 | 997.3 |
| 20260503173134 | 60 | 23 | 3.5 | 7.0 | 0.09 | 0.74 | 0.19 | 98 | 997.0 |
| 20260503172234 | 61 | 57 | 3.5 | 9.6 | 0.11 | 0.74 | 0.19 | 98 | 996.9 |
| 20260503171334 | 62 | 42 | 3.5 | 7.0 | 0.08 | 0.71 | 0.17 | 97 | 996.7 |